Location: Griffin Ranch
(33.6186°N, 110.6622°W)
Time: 12:06:56
(UTC-07:00)

Cosmos 1812 - Visible Passes

Search period start: 25 June 2017 00:00
Search period end: 05 July 2017 00:00
Orbit: 519 x 526 km, 82.5° (Epoch: 25 June)

Date Brightness Start Highest point End Pass type
(mag) Time Alt. Az. Time Alt. Az. Time Alt. Az.
25 Jun 3.2 03:12:01 10° NNW 03:15:25 44° WNW 03:15:25 44° WNW visible
26 Jun 3.2 02:59:03 10° NNW 03:02:11 47° WNW 03:02:11 47° WNW visible
27 Jun 3.4 02:46:06 10° NNW 02:48:58 45° NW 02:48:58 45° NW visible
28 Jun 3.7 02:33:10 10° N 02:35:47 41° NNW 02:35:47 41° NNW visible
29 Jun 4.1 02:20:16 10° N 02:22:39 36° N 02:22:39 36° N visible
30 Jun 4.4 02:07:21 10° N 02:09:31 32° N 02:09:31 32° N visible
01 Jul 4.7 01:54:29 10° N 01:56:25 28° N 01:56:25 28° N visible
02 Jul 4.9 01:41:37 10° N 01:43:20 24° NNE 01:43:20 24° NNE visible
03 Jul 5.2 01:28:46 10° N 01:30:17 21° NNE 01:30:17 21° NNE visible
04 Jul 5.4 01:15:56 10° N 01:17:14 19° NNE 01:17:14 19° NNE visible
